Regional Weather Roundup
Issued by NWS Charleston, WV

Home | Current Version | Previous Version | Text Only | Print | Product List | Glossary On
Versions: 1 2 3 4 5 6 7 8 9 10 11 12 13 14 15 16 17 18 19 20 21 22 23 24 25 26 27
000
ASUS41 KRLX 120110
RWRRLX
West Virginia Regional Weather Roundup
National Weather Service Charleston WV
800 PM EST MON DEC 11 2017

Note: "fair" indicates few or no clouds below 12,000 feet with no
significant weather and/or obstructions to visibility.

WVZ003-120200-
Northern Panhandle of West Virginia

CITY           SKY/WX    TMP DP  RH WIND       PRES   REMARKS
WHEELING       PTCLDY    33  20  58 E7        29.77F
$$

WVZ009-120200-
Northwest West Virginia

CITY           SKY/WX    TMP DP  RH WIND       PRES   REMARKS
PARKERSBURG    PTCLDY    34  25  69 CALM      29.79F
$$

WVZ006-120200-
Western West Virginia

CITY           SKY/WX    TMP DP  RH WIND       PRES   REMARKS
HUNTINGTON     CLOUDY    47  24  40 W3        29.75F
$$

WVZ015-120200-
West Central West Virginia

CITY           SKY/WX    TMP DP  RH WIND       PRES   REMARKS
CHARLESTON     CLOUDY    43  25  49 CALM      29.75F
$$

WVZ022-031-120200-
North Central West Virginia

CITY           SKY/WX    TMP DP  RH WIND       PRES   REMARKS
CLARKSBURG     CLOUDY    37  24  59 N3        29.77F
MORGANTOWN     CLOUDY    37  22  54 NW3       29.78F
$$

WVZ025-035-042-045-120200-
Southern West Virginia

CITY           SKY/WX    TMP DP  RH WIND       PRES   REMARKS
BECKLEY        CLEAR     41  23  48 S8        29.80F
LOGAN          MOCLDY    48  27  43 S12G21    29.77F
BLUEFIELD      CLEAR     42  21  43 SW5       29.83F
LEWISBURG      CLEAR     30  24  77 CALM      29.84S
$$

WVZ047-120200-
Northern Mountains of West Virginia

CITY           SKY/WX    TMP DP  RH WIND       PRES   REMARKS
ELKINS         CLOUDY    29  23  78 CALM      29.78F
$$

WVZ052-120200-
Eastern Panhandle of West Virginia

CITY           SKY/WX    TMP DP  RH WIND       PRES   REMARKS
MARTINSBURG    CLEAR     38  23  55 SE6       29.87F
PETERSBURG     CLEAR     30  24  77 CALM      29.83F
$$




USA.gov is the U.S. government's official web portal to all federal, state and local government web resources and services.